User: anonymous   Login
Location: Sternwarte ZA, Rosenfeld-Brittheim
(48.2889°N, 8.6789°E)
Time: 22:48:13
(UTC+02:00)
Language:

ISS - Orbit

View from above orbital plane
View from above orbital plane
View from above satellite
View from above satellite

Ground track
Ground track

The orbit data is extracted from the following two-line orbital elements,

1 25544U 98067A   17147.52162262  .00016717  00000-0  10270-3 0  9014
2 25544  51.6365 141.3296 0004900 201.2244 158.8706 15.53923580 18535
Epoch (UTC): 27 May 2017 12:31:08
Eccentricity: 0.0004900
inclination: 51.6365°
perigee height: 402 km
apogee height: 408 km
right ascension of ascending node: 141.3296°
argument of perigee: 201.2244°
revolutions per day: 15.53923580
mean anomaly at epoch: 158.8706°
orbit number at epoch: 1853

The dashed part of the orbit path shows where the satellite is in the earth's shadow,  

DLR